Hourly Weather Roundup
Issued by NWS Central Illinois

Home | Current Version | Previous Version | Text Only | Print | Product List | Glossary Off
Versions: 1 2 3 4 5 6 7 8 9 10 11 12 13 14 15 16 17 18 19 20 21 22 23 24 25 26 27 28 29 30 31 32 33 34 35 36 37 38 39 40 41 42 43 44 45 46 47 48 49 50

000
NZUS43 KILX 280610
HWRILX

AREA WEATHER ROUNDUP
NATIONAL WEATHER SERVICE, LINCOLN IL
1200 AM CST WED JAN 28 2015


CITY           SKY/WX    TMP DP  RH WIND       PRES   REMARKS
BLOOMINGTON    CLOUDY    29  26  88 SE6       30.26S WCI  23
6HR MIN TEMP:  29; 6HR MAX TEMP:  31;

CHAMPAIGN      CLEAR     22  18  85 CALM      30.27S
6HR MIN TEMP:  20; 6HR MAX TEMP:  27;

DECATUR        CLEAR     23  21  92 E6        30.26F FOG     WCI  16
6HR MIN TEMP:  23; 6HR MAX TEMP:  31;

FLORA          CLEAR     26  24  93 NE3       30.29R
6HR MIN TEMP:  26; 6HR MAX TEMP:  32;

GALESBURG      CLOUDY    28  26  89 SE7       30.24S WCI  21
JACKSONVILLE   PTCLDY    30  27  88 SE3       30.24F
6HR MIN TEMP:  30; 6HR MAX TEMP:  33;

LACON          CLOUDY    29  24  82 CALM      30.26S
6HR MIN TEMP:  29; 6HR MAX TEMP:  30;

LAWRENCEVILLE  CLOUDY    28  24  85 NE5       30.30R WCI  23
6HR MIN TEMP:  28; 6HR MAX TEMP:  32;

LITCHFIELD     CLEAR     26  24  90 E6        30.24F FOG     WCI  20
$$


CITY           SKY/WX    TMP DP  RH WIND       PRES   REMARKS
LINCOLN        CLEAR     29  25  84 CALM      30.28R
6HR MIN TEMP:  29; 6HR MAX TEMP:  33;

MACOMB         CLOUDY    30  28  91 SE8       30.26R WCI  22
MATTOON        CLEAR     22  19  89 CALM      30.26S
6HR MIN TEMP:  22; 6HR MAX TEMP:  30;

MT CARMEL AP   CLOUDY    32  25  74 CALM      30.29R
OLNEY-NOBLE AP CLEAR     27  23  86 CALM      30.29R
PARIS          CLEAR     20  19  96 CALM      30.28S
6HR MIN TEMP:  19; 6HR MAX TEMP:  27;

PEORIA         CLOUDY    31  24  75 SE6       30.26R WCI  25
6HR MIN TEMP:  31; 6HR MAX TEMP:  32;

PONTIAC        CLOUDY    28  23  84 E5        30.28R WCI  22
RANTOUL        CLEAR     24  20  85 NE3       30.26S
6HR MIN TEMP:  23; 6HR MAX TEMP:  29;

ROBINSON       CLEAR     24  23  98 CALM      30.31R FOG
6HR MIN TEMP:  22; 6HR MAX TEMP:  32;

SPRINGFIELD    CLEAR     27  23  85 SE6       30.26S WCI  20
6HR MIN TEMP:  27; 6HR MAX TEMP:  32;

TAYLORVILLE    CLEAR     28  25  86 E7        30.26F WCI  21
$$

...REGIONAL REPORTS...


CITY           SKY/WX    TMP DP  RH WIND       PRES   REMARKS
CHICAGO O`HARE MOCLDY    24  18  77 CALM      30.25F
KANKAKEE       CLEAR     19  17  92 CALM      30.28S
MOLINE         CLOUDY    27  22  81 S6        30.24F WCI  20
MOUNT VERNON   CLEAR     28  21  74 E5        30.27S WCI  23
PITTSFIELD     CLEAR     29  27  92 SE3       30.24F FOG
QUINCY         CLOUDY    29  26  89 SE10      30.22S FOG     WCI  20
ROCKFORD       CLOUDY    23  17  78 S5        30.28R WCI  17
$$


CITY           SKY/WX    TMP DP  RH WIND       PRES   REMARKS
BURLINGTON     CLOUDY    29  26  89 SE9       30.22S WCI  20
CEDAR RAPIDS   CLOUDY    27  24  89 SE12      30.19S FOG     WCI  17
DES MOINES     PTCLDY    30  26  85 SE13      30.12F WCI  20
KIRKSVILLE     CLEAR     28  27  96 E12       30.17F FOG     WCI  18
OTTUMWA        CLOUDY    29  27  92 SE10      30.17F FOG     WCI  20
ST LOUIS       CLEAR     29  24  82 E6        30.25R WCI  23
$$


CITY           SKY/WX    TMP DP  RH WIND       PRES   REMARKS
TERRE HAUTE    CLEAR     20  17  88 CALM      30.28R
EVANSVILLE     CLOUDY    34  25  69 CALM      30.29R
INDIANAPOLIS   CLEAR     17  12  80 CALM      30.25R
LAFAYETTE      CLEAR     17  14  88 W5        30.27R WCI  10
MADISON        CLOUDY    25  20  81 S6        30.23S WCI  18
MILWAUKEE      CLOUDY    27  17  66 CALM      30.25S
$$




USA.gov is the U.S. government's official web portal to all federal, state and local government web resources and services.